User: anonymous   Login
Location: Allie Creek
(37.5926°N, 89.8526°W)
Time: 02:32:40
(UTC+00:00)
Language:

Cosmos 1833 - Orbit

View from above orbital plane
View from above orbital plane
View from above satellite
View from above satellite

Ground track
Ground track

The orbit data is extracted from the following two-line orbital elements,

1 17589U 87027A   24062.49225885  .00000273  00000-0  17184-3 0  9997
2 17589  70.9177  75.4684 0022666 232.2116 127.6952 14.12965400906173
Epoch (UTC): 02 March 2024 11:48:51
Eccentricity: 0.0022666
inclination: 70.9177°
perigee height: 833 km
apogee height: 865 km
right ascension of ascending node: 75.4684°
argument of perigee: 232.2116°
revolutions per day: 14.12965400
mean anomaly at epoch: 127.6952°
orbit number at epoch: 90617

The dashed part of the orbit path shows where the satellite is in the earth's shadow,  

DLR